Theta_e
344 339 339 339 337 334 330 334 333 331 333 338 337 331 326 322 323 325 326 325 325 326 327 329 331 331 333 335 335 334 332 329 330 332 332 332 332 333 335 333 334 337 324
345 337 339 337 336 335 331 332 332 330 330 332 331 328 321 320 322 324 326 326 324 325 326 327 327 330 332 333 333 331 331 329 329 332 332 333 332 333 334 332 338 332 323
338 339 337 335 337 335 333 331 331 330 330 330 328 324 325 323 322 324 326 326 325 324 325 326 326 329 330 330 329 329 328 328 329 332 334 344 341 332 334 332 332 330 323
339 337 333 336 337 336 335 333 332 332 331 330 329 327 327 326 322 323 324 325 326 325 324 325 326 327 328 328 328 328 328 327 329 332 339 341 341 331 332 331 331 329 323
340 336 335 337 337 336 336 335 334 334 334 333 331 330 330 330 327 322 324 324 325 325 325 325 325 326 327 327 327 328 328 327 329 333 341 341 342 333 331 330 330 327 323
335 338 337 338 338 337 337 337 336 336 335 335 335 334 333 332 331 328 324 324 325 326 325 325 325 326 326 327 327 327 327 328 329 340 341 340 342 336 332 331 330 328 326
328 332 336 338 339 338 338 337 337 336 336 336 336 335 335 335 334 332 329 326 325 325 325 325 325 326 327 327 327 327 327 328 331 339 340 340 343 332 333 333 331 331 331
324 328 332 335 338 339 339 339 339 339 338 337 336 336 335 335 336 335 333 330 328 326 326 325 326 326 327 327 328 328 328 328 329 339 339 339 339 331 332 333 334 332 332
325 326 326 327 331 337 340 340 340 340 340 338 337 337 336 335 335 335 335 334 332 329 327 326 326 327 328 328 329 329 328 329 336 338 339 339 335 332 331 331 332 334 332
326 324 328 328 329 334 338 341 341 340 340 339 338 338 337 335 334 334 335 335 334 333 331 329 328 328 329 329 330 330 329 329 329 338 338 337 333 332 333 333 330 332 334
317 317 319 324 328 329 331 334 337 340 342 340 339 339 339 337 335 334 334 334 335 334 333 332 330 330 330 331 331 331 330 331 337 337 337 337 330 331 333 333 331 332 333
320 319 317 317 318 324 331 332 333 335 335 338 341 340 339 339 341 342 340 334 335 335 334 333 333 333 333 337 336 331 331 336 338 337 336 336 330 330 331 332 331 330 331
318 318 319 318 317 318 330 337 335 342 343 342 341 342 341 339 339 338 339 339 334 335 335 335 334 335 335 340 339 339 338 338 338 337 336 333 330 331 330 332 332 332 330
317 318 317 318 319 325 339 342 344 344 341 338 337 337 341 341 340 340 338 337 340 342 341 341 340 340 340 340 342 340 340 339 337 336 336 331 329 330 331 331 332 333 332
316 313 315 317 318 326 339 343 342 342 339 338 337 336 337 340 342 341 339 337 340 339 339 339 339 340 340 339 339 340 341 340 339 337 336 333 329 329 330 331 332 331 331
315 315 315 316 318 317 340 344 343 342 341 339 339 336 331 337 341 341 340 339 338 339 341 339 336 337 339 339 339 339 339 340 340 339 338 337 329 328 329 330 330 332 330
314 316 318 319 320 321 338 341 344 339 335 333 338 335 332 332 334 338 339 339 338 337 338 339 340 338 338 340 339 338 338 338 338 339 339 338 337 331 329 329 329 330 332
317 319 321 322 325 327 326 335 338 338 337 337 337 335 334 333 336 336 334 334 334 333 335 337 337 337 339 341 340 339 338 338 337 337 336 336 338 337 333 330 329 329 330
315 318 319 321 323 325 327 328 328 330 332 333 333 333 335 335 334 334 334 335 334 334 334 333 335 337 337 337 336 337 337 335 334 335 336 336 334 335 335 329 329 330 330
309 312 314 316 317 319 321 321 320 319 321 323 323 325 325 324 325 324 324 325 327 327 329 331 335 335 338 338 338 336 336 336 335 335 336 334 333 332 331 327 321 324 331
307 309 310 310 312 315 314 313 314 314 312 312 312 313 313 313 313 314 314 315 316 318 321 324 326 328 331 334 334 335 336 332 330 330 331 327 327 327 326 330 324 327 328
303 305 306 307 307 308 309 310 309 309 310 310 310 309 310 311 312 312 312 313 313 313 314 314 317 321 326 329 332 335 334 334 334 332 327 326 324 325 326 330 325 328 326
303 303 303 305 305 306 306 306 305 306 305 306 307 307 308 308 309 310 311 312 313 313 314 314 315 315 319 323 329 332 332 332 331 330 328 327 326 326 328 325 326 327 326
302 303 303 304 304 304 305 306 307 304 304 305 304 306 306 307 308 308 309 310 311 312 313 314 315 315 315 315 320 329 330 330 330 329 331 330 329 330 331 329 327 326 326
302 303 303 301 303 304 304 304 304 306 306 305 303 305 306 306 306 308 308 309 309 311 312 312 313 314 315 315 315 319 325 328 330 331 329 331 333 333 332 331 329 327 329
298 298 300 300 302 303 303 304 303 302 303 306 307 303 305 305 304 305 306 306 308 309 310 310 310 312 314 314 314 316 316 320 325 328 328 328 328 330 332 333 333 332 331
Wind_Speed
9 16 14 15 15 14 14 14 15 14 15 15 14 12 10 8 8 11 13 13 13 14 15 15 14 12 10 9 9 6 4 3 3 3 4 5 7 8 9 10 11 11 11
8 14 16 15 16 15 14 13 14 13 15 16 15 12 9 7 9 11 12 13 13 14 15 14 13 12 10 9 7 5 3 2 2 3 3 6 7 8 9 10 17 9 10
6 14 16 16 16 17 16 14 13 14 15 16 15 12 8 7 9 11 12 13 13 14 14 13 13 12 11 9 7 5 4 3 2 2 6 6 7 8 9 10 11 8 10
5 10 14 16 17 17 17 15 15 14 15 16 15 14 10 7 8 10 11 12 12 13 13 13 13 12 11 9 8 6 4 2 1 2 6 6 5 8 9 10 9 8 10
4 7 10 13 16 17 17 16 15 15 15 16 16 16 15 11 8 9 10 10 12 13 13 13 13 13 12 10 9 7 5 3 2 3 5 6 6 8 9 9 9 9 9
2 3 7 11 14 16 17 17 16 16 15 15 16 16 16 16 13 10 10 10 12 13 13 13 13 13 12 11 9 8 7 5 3 4 5 7 7 9 10 10 10 10 10
1 2 3 8 12 15 17 18 18 17 17 17 17 18 18 18 17 15 13 12 12 13 13 14 14 13 12 12 11 10 9 7 5 6 6 7 8 9 10 10 11 11 11
1 2 3 4 8 14 16 17 18 18 18 19 19 19 20 20 20 19 17 16 15 14 14 15 14 14 13 12 12 11 10 9 7 8 8 8 11 10 11 10 10 12 12
4 4 4 4 7 10 15 18 19 19 19 19 20 20 21 21 22 21 21 20 18 17 16 16 15 15 14 14 14 13 12 11 9 9 10 10 11 11 12 10 12 12 13
7 8 9 8 10 13 14 16 18 19 20 20 21 21 22 23 23 24 24 23 22 20 19 18 17 16 15 15 15 15 14 13 12 11 11 11 15 12 13 13 11 15 14
8 8 11 12 13 14 16 16 16 18 19 21 23 23 23 24 24 26 27 26 25 24 22 21 20 18 17 17 17 17 17 15 12 12 12 17 14 14 13 15 13 15 16
13 11 11 12 14 16 18 19 18 19 18 20 22 24 26 25 20 20 23 28 27 26 25 24 22 21 20 18 18 20 20 15 14 14 13 19 16 16 15 14 14 14 16
16 15 14 16 16 18 18 20 19 16 14 16 19 20 24 26 27 27 21 22 29 29 28 28 27 26 25 20 18 17 17 17 16 15 15 20 18 18 17 16 17 16 17
18 17 16 16 16 17 16 18 18 16 17 18 18 20 21 23 25 26 27 27 21 22 24 26 25 26 25 23 22 21 20 18 17 16 16 20 19 19 19 19 19 17 16
14 16 16 17 19 16 16 17 19 20 23 21 20 21 20 21 23 25 26 27 28 27 27 26 29 26 27 26 24 24 23 22 21 19 17 22 20 21 21 22 21 21 21
14 13 13 14 15 18 16 19 21 21 20 21 22 20 19 19 21 22 25 27 27 27 27 27 32 31 29 29 31 29 26 24 22 22 20 20 21 22 23 23 23 24 23
14 13 14 13 14 15 16 21 23 24 23 23 22 21 19 19 21 21 20 22 25 27 29 31 31 31 31 33 34 34 35 33 27 25 24 22 21 23 24 24 25 26 26
12 13 14 13 10 9 14 17 15 21 21 20 19 21 20 22 22 23 24 25 26 27 29 29 29 32 33 32 33 34 35 34 34 32 27 25 23 22 24 24 24 27 28
12 11 11 12 12 11 9 9 9 12 12 12 14 15 17 20 22 21 21 23 25 27 29 30 32 33 33 34 35 36 38 35 35 35 35 31 30 28 26 27 26 27 30
11 9 10 11 12 10 9 10 7 5 7 8 10 13 13 14 16 17 17 20 22 21 22 25 30 31 36 39 36 42 46 37 30 30 31 30 31 30 31 29 29 33 32
12 10 10 10 9 11 10 7 10 9 5 5 6 9 11 14 16 15 15 17 19 20 20 22 22 23 28 34 35 39 37 31 46 36 32 29 30 38 41 42 39 35 34
13 13 12 11 9 8 6 6 5 7 10 8 8 8 9 11 13 15 17 19 20 22 24 24 23 21 21 22 26 28 24 29 33 45 39 45 50 59 50 41 46 37 39
16 18 17 16 13 10 8 8 7 7 7 8 10 12 13 13 13 14 17 19 20 21 22 23 25 26 20 21 22 21 11 16 22 29 39 44 46 64 52 56 47 42 41
12 12 13 14 14 14 15 14 11 8 8 12 11 15 14 13 15 17 18 20 21 22 21 22 22 23 25 27 21 28 32 26 22 22 22 31 42 51 49 46 53 55 44
11 10 8 10 11 12 13 16 17 14 14 12 13 17 20 17 14 16 16 17 20 20 22 21 21 21 21 22 27 21 26 28 33 30 27 20 23 27 33 37 46 52 49
11 12 12 11 12 11 11 13 15 15 17 18 18 18 22 23 19 16 16 16 17 19 20 21 21 20 21 22 24 23 27 26 24 30 34 33 33 28 28 28 31 35 42
Wind_Direction
162 190 181 186 187 182 179 175 172 170 170 178 179 175 168 161 160 159 158 157 162 167 169 171 169 164 161 156 158 159 148 102 89 96 79 102 122 133 136 131 119 150 131
196 208 204 198 189 189 189 182 179 179 178 181 184 182 172 166 171 169 168 166 170 172 172 175 175 171 167 163 166 176 172 124 122 106 90 123 134 144 144 134 131 161 132
187 199 199 197 195 193 194 191 188 187 187 187 189 187 185 174 174 177 177 177 179 179 178 179 178 177 177 176 183 194 200 176 160 110 87 128 150 149 153 156 153 152 142
144 182 194 198 200 200 201 200 199 198 193 194 195 195 197 191 181 185 188 189 188 189 187 186 185 186 188 193 200 209 213 185 170 136 96 161 176 154 164 165 165 162 155
122 176 207 210 210 209 210 210 210 209 205 200 202 204 204 203 203 199 200 200 200 199 198 197 196 196 201 207 213 222 223 210 209 140 190 168 182 171 169 171 176 172 162
66 200 219 220 222 222 222 222 222 221 218 215 213 213 215 212 209 212 213 211 211 209 207 207 208 207 210 215 221 229 234 220 218 182 198 200 166 200 178 176 183 181 182
88 140 206 220 232 233 231 230 231 230 229 226 224 220 221 221 219 217 217 218 220 217 214 215 216 216 217 221 225 232 236 229 189 215 204 206 193 195 189 185 191 190 190
328 211 206 212 223 234 238 237 236 235 236 235 233 230 227 226 225 225 225 223 223 224 223 222 221 220 220 225 232 234 238 237 215 214 203 207 219 204 200 197 203 202 200
301 279 243 241 237 233 236 238 239 239 239 239 240 239 237 233 230 229 229 227 227 227 228 229 228 225 225 226 234 237 239 239 215 219 216 216 233 215 210 216 222 217 210
302 282 262 255 250 249 244 242 243 243 243 243 242 242 242 240 237 234 232 230 229 229 230 231 233 232 231 230 234 237 238 240 235 234 229 224 236 225 225 231 237 226 218
332 295 288 277 270 261 260 256 252 250 246 244 245 245 243 241 239 236 235 234 231 231 231 232 232 234 235 233 233 238 239 239 240 234 237 239 233 232 231 233 242 230 223
332 318 304 294 271 266 257 253 252 250 247 249 248 245 243 243 240 239 239 237 235 234 233 233 233 234 235 234 238 235 239 233 239 237 237 245 233 234 238 234 232 234 227
326 321 318 290 277 266 258 249 246 242 241 243 244 243 247 247 247 247 239 246 237 235 235 235 230 231 232 227 234 238 236 233 237 243 240 249 238 237 240 237 236 238 234
322 318 294 292 279 265 252 251 240 235 240 245 257 258 256 253 246 245 246 245 235 233 237 230 233 230 230 230 228 234 235 233 238 240 241 250 244 239 240 239 241 243 240
320 302 289 277 274 254 257 247 241 241 245 254 262 266 262 256 253 249 245 244 247 247 242 237 234 234 235 232 234 234 236 238 234 235 238 250 245 244 242 242 243 243 242
335 321 293 276 266 254 237 235 243 244 249 253 255 262 276 263 257 257 252 249 247 245 246 250 247 242 242 244 241 241 239 239 242 241 243 251 248 248 248 244 243 245 247
349 331 307 290 271 253 236 233 233 237 239 247 246 251 258 253 257 258 254 256 256 254 250 249 249 250 246 248 251 250 250 248 241 237 239 238 250 246 248 251 249 247 248
333 324 321 311 300 279 245 242 234 237 238 242 241 244 241 243 245 252 255 256 256 256 253 254 255 256 252 246 249 250 251 248 250 246 243 242 236 239 244 246 252 254 251
352 331 316 307 296 288 273 243 236 234 229 226 233 235 239 244 246 249 252 262 263 262 261 260 253 253 254 254 251 250 246 245 242 244 244 246 246 242 244 252 251 251 253
9 349 332 319 309 297 290 271 256 257 252 244 246 249 247 248 251 255 260 263 266 270 268 264 259 259 255 253 261 257 250 243 253 251 252 243 248 248 245 243 258 264 252
11 1 355 349 330 310 302 283 273 271 291 266 266 267 267 269 268 266 268 269 265 265 267 259 258 260 259 257 262 260 257 252 256 232 234 256 246 266 265 258 256 250 250
14 10 6 5 6 360 338 321 323 302 284 282 278 292 282 274 273 272 273 271 272 268 266 264 263 264 264 257 258 255 254 255 247 252 248 257 235 244 250 254 254 249 243
21 18 13 7 2 3 14 22 27 350 349 314 309 301 302 297 286 282 278 278 278 274 271 268 266 260 264 259 248 241 244 252 261 249 251 251 245 244 247 250 251 252 246
1 11 13 10 7 5 356 348 343 3 353 354 350 331 319 311 301 294 288 284 283 281 277 274 267 262 259 259 261 242 245 255 256 253 246 250 247 243 248 251 246 247 249
347 334 340 358 359 352 352 349 341 326 327 318 334 337 332 321 313 304 297 290 286 282 280 278 273 266 258 258 260 256 254 259 251 254 257 248 244 242 248 251 245 243 247
5 5 352 342 337 343 347 342 339 343 333 316 315 326 333 329 328 316 310 306 295 289 283 280 276 270 263 258 256 260 252 252 254 257 256 255 255 255 251 247 248 248 239